Bellingham, WA
on Wednesday, January 23, 2013

Wednesday
Previous Day Next Day
Daily Summary
 ActualAverageRecord
Temperature
Mean Temperature °F 40°F  
Max Temperature 46°F 46°F 60°F (2005)
Min Temperature 34°F 33°F 9°F (1969)
Degree Days
Heating Degree Days 25 25  
Month to date heating degree days 598  
Cooling Degree Days 0 0  
Month to date cooling degree days 0  
Year to date cooling degree days 0  
Moisture
Dew Point 38°F   
Average Humidity 89    
Maximum Humidity 93    
Minimum Humidity 82    
Precipitation
Precipitation 0.13 in 0.15 in 2.42 in (1982)
Month to date precipitation 3.54  
Year to date precipitation 3.54  
Wind
Wind Speed 6 mph   
Max Wind Speed 15 mph   
Max Gust Speed 24 mph   
Visibility 9 miles   
Events Rain   

Key: T is trace of precipitation, MM is missing value
Source: NWS Daily Summary
Time(PST)TemperatureDew PointHumidity Pressure Visibility Wind DirectionWind SpeedGust SpeedPrecipitationEvents Conditions
12:53 AM 34.0°F 32.0°F 92% 29.96 in 8.0 miles Calm Calm - N/A   Overcast
1:53 AM 36.0°F 32.0°F 86% 29.95 in 10.0 miles NE 4.6 mph - N/A   Overcast
2:53 AM 35.1°F 32.0°F 89% 29.94 in 10.0 miles WNW 4.6 mph - N/A   Overcast
3:53 AM 35.1°F 33.1°F 92% 29.96 in 10.0 miles SSE 4.6 mph - N/A   Overcast
4:53 AM 37.9°F 34.0°F 86% 29.94 in 10.0 miles Calm Calm - N/A   Overcast
5:53 AM 36.0°F 33.1°F 89% 29.92 in 10.0 miles North 8.1 mph - N/A   Overcast
6:53 AM 37.0°F 32.0°F 82% 29.89 in 10.0 miles NNE 8.1 mph - 0.00 in Rain Light Rain
7:53 AM 36.0°F 32.0°F 86% 29.88 in 10.0 miles North 8.1 mph - 0.00 in   Overcast
8:53 AM 36.0°F 34.0°F 93% 29.88 in 10.0 miles North 3.5 mph - 0.00 in Rain Light Rain
9:53 AM 37.9°F 36.0°F 93% 29.89 in 6.0 miles Calm Calm - 0.00 in Rain Light Rain
10:53 AM 39.9°F 37.9°F 93% 29.87 in 5.0 miles ESE 3.5 mph - 0.04 in Rain Light Rain
11:53 AM 42.1°F 39.0°F 89% 29.86 in 8.0 miles Calm Calm - 0.02 in Rain Light Rain
12:07 PM 41.0°F 39.2°F 93% 29.83 in 7.0 miles Calm Calm - 0.00 in Rain Light Rain
12:53 PM 46.0°F 42.1°F 86% 29.83 in 7.0 miles South 9.2 mph 20.7 mph 0.00 in Rain Light Rain
1:53 PM 46.0°F 42.1°F 86% 29.83 in 9.0 miles South 6.9 mph - 0.00 in Rain Light Rain
2:53 PM 43.0°F 41.0°F 93% 29.86 in 5.0 miles South 8.1 mph - 0.01 in Rain Light Rain
3:53 PM 43.0°F 41.0°F 93% 29.89 in 4.0 miles South 11.5 mph 18.4 mph 0.05 in Rain Light Rain
4:15 PM 42.8°F 41.0°F 93% 29.86 in 5.0 miles South 11.5 mph 17.3 mph 0.01 in Rain Light Rain
4:53 PM 43.0°F 41.0°F 93% 29.90 in 7.0 miles SSE 13.8 mph 19.6 mph 0.01 in Rain Light Rain
5:53 PM 42.1°F 39.9°F 92% 29.92 in 8.0 miles South 11.5 mph 20.7 mph 0.00 in Rain Light Rain
6:45 PM 42.8°F 39.2°F 87% 29.91 in 10.0 miles SSE 10.4 mph - 0.00 in Rain Light Rain
6:53 PM 43.0°F 39.9°F 89% 29.94 in 10.0 miles SSE 10.4 mph - 0.00 in Rain Light Rain
7:53 PM 43.0°F 39.9°F 89% 29.98 in 10.0 miles South 11.5 mph 16.1 mph 0.00 in   Overcast
8:48 PM 42.8°F 39.2°F 87% 29.99 in 8.0 miles South 11.5 mph - 0.00 in Rain Light Rain
8:53 PM 42.1°F 39.9°F 92% 30.02 in 8.0 miles South 13.8 mph - 0.00 in Rain Light Rain
9:31 PM 42.8°F 39.2°F 87% 30.01 in 10.0 miles SSE 12.7 mph 24.2 mph 0.00 in   Overcast
9:48 PM 42.8°F 39.2°F 87% 30.01 in 10.0 miles South 11.5 mph - 0.00 in   Overcast
9:53 PM 43.0°F 39.0°F 86% 30.04 in 10.0 miles South 11.5 mph 20.7 mph 0.00 in   Overcast
10:13 PM 42.8°F 39.2°F 87% 30.02 in 10.0 miles South 15.0 mph - N/A   Scattered Clouds
10:36 PM 42.8°F 39.2°F 87% 30.05 in 10.0 miles South 12.7 mph - N/A   Mostly Cloudy
10:53 PM 43.0°F 39.9°F 89% 30.08 in 10.0 miles SSE 12.7 mph 21.9 mph N/A   Overcast
11:28 PM 42.8°F 39.2°F 87% 30.07 in 10.0 miles South 11.5 mph 18.4 mph N/A   Partly Cloudy
11:53 PM 43.0°F 39.0°F 86% 30.12 in 10.0 miles SSE 11.5 mph 19.6 mph N/A   Clear
Moon Phase
Jan. 23 Jan. 26 Feb. 03 Feb. 10 Feb. 17
Sunrise:07:50 AM (PST) Moon Rise:02:05 PM (PST)
Sunset:04:54 PM (PST) Moon Set:05:10 AM (PST)

Copyright © 2014 The Weather Underground, Inc.